軌道要素
Epoch 2019 July 16.0 TT = JDT 2458680.5
T 2019 July 21.21972 TT Rudenko
q 3.1950385 (2000.0) P Q
z +0.0007109 Peri. 85.35287 -0.02319020 -0.36219285
+/-0.0000013 Node 291.04637 -0.48367629 +0.81978505
e 0.9977286 Incl. 93.22218 +0.87493969 +0.44358630
From 481 observations 2019 May 27-2020 May 19, mean residual 0".5.
|